Location: Newark
(39.7092°N, 111.8314°W)
Time: 10:28:58
(UTC+00:00)

LightSail 2 - Visible Passes

Search period start: 20 February 2020 00:00
Search period end: 01 March 2020 00:00
Orbit: 700 x 722 km, 24.0° (Epoch: 19 February)

Date Brightness Start Highest point End Pass type
(mag) Time Alt. Az. Time Alt. Az. Time Alt. Az.
20 Feb 7.3 12:28:59 12° SSW 12:30:23 13° S 12:32:52 10° SSE visible
21 Feb 7.7 11:33:52 11° SSE 11:33:52 11° SSE 11:34:20 10° SSE visible
21 Feb 7.4 13:14:57 10° SSW 13:16:28 11° S 13:18:00 10° S visible
22 Feb 7.3 12:17:39 12° S 12:17:58 12° S 12:20:06 10° SSE visible
